Powrót do katalogu

IUS R/B(1)

AktywnyHEO
NORAD 19549·ROCKET BODY·🇺🇸 United States

Wystrzelony Sep 29, 1988 z Cape Canaveral Space Force Station

Loading…

Następne Przeloty (najbliższe 24 godziny)

TLE

ŚwieżeSource: Space-Track

Epoka: Sep 14, 2026, 02:13 UTC

1 19549U 88091C   26257.09302006  .00003693  00000-0  10159-2 0  9995
2 19549  26.3067 212.9870 6784734 279.0138  15.5259  2.91981569359062

Śledź IUS R/B(1) w czasie rzeczywistym z AllMySat

Download on the App Store